Kelso-Longview, WA
on Saturday, January 12, 2013

Saturday
Previous Day Next Day
Daily Summary
 ActualAverage (KSPB)Record (KSPB)
Temperature
Mean Temperature °F °F  
Max Temperature 37°F °F 53°F (2014)
Min Temperature 24°F °F 19°F (2007)
Degree Days
Heating Degree Days 34    
Month to date heating degree days  
Since 1 July heating degree days  
Cooling Degree Days 0    
Month to date cooling degree days  
Year to date cooling degree days  
Moisture
Dew Point 25°F   
Average Humidity 83    
Maximum Humidity 93    
Minimum Humidity 60    
Precipitation
Precipitation 0.00 in in 0.97 in (2011)
Month to date precipitation  
Year to date precipitation  
Wind
Wind Speed 0 mph   
Max Wind Speed 6 mph   
Max Gust Speed mph   
Visibility 9 miles   
Events     

Key: T is trace of precipitation, MM is missing value
Source: NWS Daily Summary
Time(PST)TemperatureDew PointHumidity Pressure Visibility Wind DirectionWind SpeedGust SpeedPrecipitationEvents Conditions
12:15 AM 26.6°F 24.8°F 93% 30.32 in 10.0 miles Calm Calm - N/A   Overcast
12:35 AM 26.6°F 24.8°F 93% 30.33 in 10.0 miles Calm Calm - N/A   Overcast
12:55 AM 26.6°F 24.8°F 93% 30.33 in 8.0 miles Calm Calm - N/A   Overcast
1:15 AM 28.4°F 24.8°F 86% 30.33 in 10.0 miles Calm Calm - N/A   Overcast
1:35 AM 26.6°F 24.8°F 93% 30.33 in 9.0 miles Calm Calm - N/A   Overcast
1:55 AM 26.6°F 24.8°F 93% 30.33 in 9.0 miles Calm Calm - N/A   Mostly Cloudy
2:15 AM 26.6°F 24.8°F 93% 30.34 in 9.0 miles Calm Calm - N/A   Scattered Clouds
2:35 AM 26.6°F 24.8°F 93% 30.34 in 10.0 miles Calm Calm - N/A   Partly Cloudy
2:55 AM 26.6°F 21.2°F 80% 30.34 in 8.0 miles Calm Calm - N/A   Scattered Clouds
3:15 AM 24.8°F 21.2°F 86% 30.34 in 3.0 miles Calm Calm - N/A   Mostly Cloudy
3:35 AM 26.6°F 23.0°F 86% 30.33 in 6.0 miles Calm Calm - N/A   Partly Cloudy
3:55 AM 24.8°F 23.0°F 93% 30.33 in 0.2 miles Calm Calm - N/A   Overcast
4:15 AM 26.6°F 24.8°F 93% 30.33 in 2.0 miles Calm Calm - N/A   Overcast
4:35 AM 26.6°F 24.8°F 93% 30.33 in 0.2 miles Calm Calm - N/A   Overcast
4:55 AM 24.8°F 23.0°F 93% 30.34 in 4.0 miles Calm Calm - N/A   Overcast
5:15 AM 26.6°F 24.8°F 93% 30.34 in 8.0 miles Calm Calm - N/A   Overcast
5:35 AM 26.6°F 24.8°F 93% 30.34 in 10.0 miles Calm Calm - N/A   Overcast
5:55 AM 26.6°F 24.8°F 93% 30.34 in 10.0 miles Calm Calm - N/A   Overcast
6:15 AM 28.4°F 24.8°F 86% 30.34 in 10.0 miles Calm Calm - N/A   Overcast
6:35 AM 28.4°F 24.8°F 86% 30.34 in 10.0 miles Calm Calm - N/A   Overcast
6:55 AM 28.4°F 24.8°F 86% 30.35 in 10.0 miles Calm Calm - N/A   Overcast
7:15 AM 28.4°F 24.8°F 86% 30.35 in 10.0 miles Calm Calm - N/A   Overcast
7:35 AM 28.4°F 24.8°F 86% 30.35 in 10.0 miles Calm Calm - N/A   Overcast
7:55 AM 28.4°F 26.6°F 93% 30.36 in 10.0 miles Calm Calm - N/A   Overcast
8:15 AM 28.4°F 26.6°F 93% 30.36 in 10.0 miles Calm Calm - N/A   Overcast
8:35 AM 30.2°F 26.6°F 86% 30.37 in 10.0 miles Calm Calm - N/A   Overcast
8:55 AM 30.2°F 26.6°F 86% 30.37 in 9.0 miles Calm Calm - N/A   Overcast
9:15 AM 30.2°F 26.6°F 86% 30.37 in 9.0 miles Calm Calm - N/A   Overcast
9:55 AM 30.2°F 26.6°F 86% 30.38 in 10.0 miles Calm Calm - N/A   Overcast
10:15 AM 30.2°F 26.6°F 86% 30.38 in 10.0 miles Calm Calm - N/A   Overcast
10:55 AM 30.2°F 26.6°F 86% 30.39 in 10.0 miles Calm Calm - N/A   Overcast
11:35 AM 30.2°F 26.6°F 86% 30.38 in 9.0 miles Calm Calm - N/A   Overcast
11:55 AM 30.2°F 26.6°F 86% 30.38 in 10.0 miles Calm Calm - N/A   Overcast
12:15 PM 32.0°F 26.6°F 80% 30.37 in 10.0 miles Calm Calm - N/A   Overcast
12:35 PM 33.8°F 26.6°F 75% 30.36 in 10.0 miles Calm Calm - N/A   Mostly Cloudy
12:55 PM 33.8°F 28.4°F 81% 30.36 in 10.0 miles North - - N/A   Partly Cloudy
1:15 PM 33.8°F 26.6°F 75% 30.36 in 10.0 miles Calm Calm - N/A   Partly Cloudy
1:35 PM 35.6°F 26.6°F 70% 30.36 in 10.0 miles Calm Calm - N/A   Partly Cloudy
1:55 PM 37.4°F 28.4°F 70% 30.37 in 10.0 miles WSW 4.6 mph - N/A   Partly Cloudy
2:15 PM 35.6°F 26.6°F 70% 30.37 in 10.0 miles Calm Calm - N/A   Mostly Cloudy
2:35 PM 37.4°F 26.6°F 65% 30.37 in 10.0 miles WSW 4.6 mph - N/A   Scattered Clouds
2:55 PM 37.4°F 24.8°F 60% 30.37 in 10.0 miles WNW 4.6 mph - N/A   Clear
3:15 PM 37.4°F 24.8°F 60% 30.37 in 10.0 miles NW 4.6 mph - N/A   Scattered Clouds
3:35 PM 37.4°F 24.8°F 60% 30.38 in 10.0 miles North 4.6 mph - N/A   Scattered Clouds
3:55 PM 37.4°F 24.8°F 60% 30.38 in 10.0 miles North 5.8 mph - N/A   Clear
4:15 PM 37.4°F 24.8°F 60% 30.37 in 10.0 miles North 5.8 mph - N/A   Clear
4:35 PM 35.6°F 24.8°F 65% 30.37 in 10.0 miles Calm Calm - N/A   Clear
4:55 PM 35.6°F 24.8°F 65% 30.38 in 10.0 miles Calm Calm - N/A   Clear
5:15 PM 33.8°F 26.6°F 75% 30.38 in 10.0 miles Calm Calm - N/A   Clear
5:35 PM 30.2°F 24.8°F 80% 30.39 in 10.0 miles Calm Calm - N/A   Clear
5:55 PM 30.2°F 24.8°F 80% 30.38 in 10.0 miles Calm Calm - N/A   Clear
6:15 PM 30.2°F 24.8°F 80% 30.39 in 10.0 miles Calm Calm - N/A   Clear
6:35 PM 28.4°F 24.8°F 86% 30.38 in 10.0 miles Calm Calm - N/A   Clear
6:55 PM 28.4°F 24.8°F 86% 30.39 in 10.0 miles Calm Calm - N/A   Clear
7:15 PM 28.4°F 24.8°F 86% 30.40 in 10.0 miles Calm Calm - N/A   Clear
7:35 PM 28.4°F 24.8°F 86% 30.40 in 10.0 miles Calm Calm - N/A   Clear
7:55 PM 26.6°F 24.8°F 93% 30.39 in 10.0 miles Calm Calm - N/A   Clear
8:15 PM 26.6°F 23.0°F 86% 30.40 in 10.0 miles Calm Calm - N/A   Clear
8:35 PM 26.6°F 23.0°F 86% 30.40 in 10.0 miles Calm Calm - N/A   Clear
8:55 PM 24.8°F 23.0°F 93% 30.40 in 10.0 miles Calm Calm - N/A   Clear
9:15 PM 26.6°F 23.0°F 86% 30.40 in 6.0 miles Calm Calm - N/A   Clear
9:35 PM 24.8°F 21.2°F 86% 30.41 in 6.0 miles Calm Calm - N/A   Clear
9:55 PM 26.6°F 21.2°F 80% 30.42 in 9.0 miles Calm Calm - N/A   Clear
10:15 PM 26.6°F 23.0°F 86% 30.42 in 7.0 miles Calm Calm - N/A   Clear
10:35 PM 24.8°F 21.2°F 86% 30.42 in 5.0 miles Calm Calm - N/A   Clear
10:55 PM 24.8°F 23.0°F 93% 30.43 in 9.0 miles Calm Calm - N/A   Clear
11:15 PM 24.8°F 21.2°F 86% 30.43 in 9.0 miles Calm Calm - N/A   Clear
11:35 PM 24.8°F 19.4°F 80% 30.43 in 9.0 miles Calm Calm - N/A   Clear
11:55 PM 24.8°F 21.2°F 86% 30.44 in 9.0 miles Calm Calm - N/A   Clear
Moon Phase
Jan. 12 Jan. 18 Jan. 26 Feb. 03 Feb. 10
Sunrise:07:51 AM (PST) Moon Rise:08:08 AM (PST)1/12
Sunset:04:49 PM (PST) Moon Set:06:32 PM (PST)1/12

Copyright © 2014 The Weather Underground, Inc.